TimeCDT,TemperatureF,Dew PointF,Humidity,Sea Level PressureIn,VisibilityMPH,Wind Direction,Wind SpeedMPH,Gust SpeedMPH,PrecipitationIn,Events,Conditions,WindDirDegrees,DateUTC
12:15 AM,58.3,57.4,97,30.01,10.0,WNW,3.5,-,0.01,,Overcast,300,2013-10-16 05:15:00
12:35 AM,58.3,57.2,96,30.02,10.0,NW,8.1,-,0.01,,Overcast,310,2013-10-16 05:35:00
12:55 AM,58.1,57.2,97,30.03,7.0,NW,3.5,-,0.02,,Overcast,320,2013-10-16 05:55:00
1:15 AM,57.7,56.8,97,30.02,5.0,NW,4.6,-,0.01,,Overcast,320,2013-10-16 06:15:00
1:35 AM,57.7,56.7,96,30.01,7.0,NNW,5.8,-,0.03,,Overcast,330,2013-10-16 06:35:00
1:55 AM,57.2,56.1,96,30.01,7.0,NNW,6.9,-,0.03,,Overcast,340,2013-10-16 06:55:00
2:15 AM,56.3,55.4,97,30.01,4.0,NNW,9.2,-,N/A,,Overcast,330,2013-10-16 07:15:00
2:35 AM,55.9,54.9,96,30.00,4.0,NNW,8.1,-,0.01,,Overcast,340,2013-10-16 07:35:00
2:55 AM,55.8,54.7,96,30.00,5.0,NW,6.9,-,0.01,,Overcast,320,2013-10-16 07:55:00
3:15 AM,55.4,54.5,97,30.00,10.0,NW,4.6,-,N/A,,Overcast,320,2013-10-16 08:15:00
3:35 AM,55.4,54.5,97,29.99,2.0,NNW,8.1,-,0.02,,Overcast,330,2013-10-16 08:35:00
3:55 AM,55.4,54.5,97,30.00,7.0,NW,8.1,-,0.03,,Overcast,320,2013-10-16 08:55:00
4:15 AM,55.4,54.3,96,30.01,10.0,NW,8.1,-,N/A,,Overcast,320,2013-10-16 09:15:00
4:35 AM,55.4,54.1,96,29.99,10.0,NNW,10.4,-,N/A,,Overcast,340,2013-10-16 09:35:00
4:55 AM,55.4,54.3,96,30.00,10.0,NNW,8.1,-,N/A,,Overcast,330,2013-10-16 09:55:00
5:15 AM,55.4,54.0,95,30.00,7.0,North,10.4,-,N/A,,Overcast,350,2013-10-16 10:15:00
5:35 AM,55.0,53.8,96,30.00,7.0,North,9.2,-,0.01,,Overcast,350,2013-10-16 10:35:00
5:55 AM,54.9,53.6,96,30.00,7.0,North,6.9,-,0.01,,Mostly Cloudy,350,2013-10-16 10:55:00
6:15 AM,54.9,53.6,96,30.02,10.0,NNW,4.6,-,N/A,,Mostly Cloudy,340,2013-10-16 11:15:00
6:35 AM,54.9,53.6,96,30.02,7.0,NNW,4.6,-,N/A,,Overcast,340,2013-10-16 11:35:00
6:55 AM,54.9,53.2,94,30.02,7.0,North,4.6,-,N/A,,Overcast,350,2013-10-16 11:55:00
7:15 AM,54.9,53.2,94,30.04,10.0,NW,3.5,-,N/A,,Overcast,320,2013-10-16 12:15:00
7:35 AM,54.9,53.2,94,30.04,10.0,NNW,5.8,-,N/A,,Overcast,340,2013-10-16 12:35:00
7:55 AM,54.9,53.2,94,30.05,5.0,NW,4.6,-,0.01,,Overcast,310,2013-10-16 12:55:00
8:15 AM,54.9,53.4,95,30.06,5.0,Calm,Calm,-,N/A,,Overcast,0,2013-10-16 13:15:00
8:35 AM,54.9,53.6,96,30.06,3.0,NW,4.6,-,N/A,,Overcast,320,2013-10-16 13:35:00
8:55 AM,55.0,53.8,96,30.06,4.0,NNW,4.6,-,N/A,,Overcast,330,2013-10-16 13:55:00
9:15 AM,55.4,54.0,95,30.07,2.0,NNW,4.6,-,N/A,,Overcast,330,2013-10-16 14:15:00
9:35 AM,55.4,54.1,96,30.08,2.5,NNW,4.6,-,N/A,,Overcast,330,2013-10-16 14:35:00
9:55 AM,55.8,54.7,96,30.08,2.5,NNW,6.9,-,N/A,,Overcast,340,2013-10-16 14:55:00
10:15 AM,55.9,54.9,96,30.08,2.5,NNW,4.6,-,N/A,,Overcast,340,2013-10-16 15:15:00
10:35 AM,56.1,54.9,96,30.08,5.0,NNW,5.8,-,N/A,,Overcast,330,2013-10-16 15:35:00
10:55 AM,55.8,54.5,96,30.08,4.0,NNW,4.6,-,N/A,,Overcast,340,2013-10-16 15:55:00
11:15 AM,55.9,54.7,96,30.08,3.0,NNW,5.8,-,N/A,,Overcast,340,2013-10-16 16:15:00
11:35 AM,56.3,55.0,96,30.08,3.0,NNW,6.9,-,N/A,,Overcast,340,2013-10-16 16:35:00
11:55 AM,56.3,54.9,95,30.08,3.0,NNW,9.2,-,N/A,,Overcast,340,2013-10-16 16:55:00
12:15 PM,56.5,55.0,95,30.07,4.0,North,6.9,-,N/A,,Overcast,350,2013-10-16 17:15:00
12:35 PM,57.2,55.6,94,30.07,2.5,NNW,5.8,-,N/A,,Overcast,340,2013-10-16 17:35:00
12:55 PM,57.4,55.9,95,30.06,3.0,North,6.9,-,N/A,,Overcast,350,2013-10-16 17:55:00
1:15 PM,57.6,55.8,94,30.05,5.0,North,5.8,-,N/A,,Overcast,350,2013-10-16 18:15:00
1:35 PM,57.6,55.8,94,30.04,4.0,NNW,5.8,-,N/A,,Overcast,340,2013-10-16 18:35:00
1:55 PM,57.9,56.3,94,30.03,4.0,NNW,4.6,-,N/A,,Overcast,340,2013-10-16 18:55:00
2:15 PM,58.5,56.7,94,30.03,3.0,North,5.8,-,N/A,,Overcast,350,2013-10-16 19:15:00
2:35 PM,58.3,56.3,93,30.03,5.0,Calm,Calm,-,N/A,,Overcast,0,2013-10-16 19:35:00
2:55 PM,58.8,56.3,91,30.03,7.0,NNW,3.5,-,N/A,,Overcast,340,2013-10-16 19:55:00
3:15 PM,58.8,56.8,93,30.02,2.0,NNW,4.6,-,N/A,,Overcast,330,2013-10-16 20:15:00
3:35 PM,58.5,57.0,95,30.02,1.5,NW,4.6,-,0.01,,Overcast,320,2013-10-16 20:35:00
3:55 PM,58.6,57.4,96,30.02,1.8,NW,4.6,-,0.01,,Overcast,320,2013-10-16 20:55:00
4:15 PM,58.6,57.4,96,30.02,2.5,Calm,Calm,-,N/A,,Overcast,0,2013-10-16 21:15:00
4:35 PM,58.3,57.0,96,30.02,4.0,WNW,3.5,-,N/A,,Overcast,300,2013-10-16 21:35:00
4:55 PM,57.9,56.7,96,30.01,2.0,Calm,Calm,-,N/A,,Overcast,0,2013-10-16 21:55:00
5:15 PM,57.4,56.3,96,30.02,2.0,Calm,Calm,-,N/A,,Overcast,0,2013-10-16 22:15:00
5:35 PM,57.2,55.8,95,30.02,2.5,NW,4.6,-,N/A,,Overcast,310,2013-10-16 22:35:00
5:55 PM,56.5,55.4,96,30.02,1.8,WNW,4.6,-,N/A,,Overcast,300,2013-10-16 22:55:00
6:15 PM,56.3,55.2,96,30.03,3.0,NW,5.8,-,N/A,,Overcast,320,2013-10-16 23:15:00
6:35 PM,55.9,54.7,96,30.03,4.0,NW,4.6,-,N/A,,Overcast,320,2013-10-16 23:35:00
6:55 PM,55.9,54.7,96,30.03,7.0,NW,3.5,-,N/A,,Overcast,320,2013-10-16 23:55:00
7:15 PM,55.8,54.5,96,30.03,5.0,Calm,Calm,-,0.01,,Overcast,0,2013-10-17 00:15:00
7:35 PM,55.9,54.5,95,30.04,5.0,Calm,Calm,-,0.01,,Mostly Cloudy,0,2013-10-17 00:35:00
7:55 PM,56.3,54.9,95,30.04,10.0,Calm,Calm,-,0.01,,Mostly Cloudy,0,2013-10-17 00:55:00
8:35 PM,56.5,55.2,96,30.05,10.0,Calm,Calm,-,N/A,,Overcast,0,2013-10-17 01:35:00
8:55 PM,56.3,54.9,95,30.05,10.0,Calm,Calm,-,N/A,,Overcast,0,2013-10-17 01:55:00
9:15 PM,56.5,55.2,96,30.05,10.0,Calm,Calm,-,N/A,,Overcast,0,2013-10-17 02:15:00
9:35 PM,56.7,55.4,96,30.06,10.0,Calm,Calm,-,N/A,,Overcast,0,2013-10-17 02:35:00
9:55 PM,56.7,55.6,96,30.07,10.0,Calm,Calm,-,N/A,,Overcast,0,2013-10-17 02:55:00
10:15 PM,56.3,55.4,97,30.06,10.0,Calm,Calm,-,N/A,,Mostly Cloudy,0,2013-10-17 03:15:00
10:35 PM,55.8,54.7,96,30.06,7.0,Calm,Calm,-,N/A,,Mostly Cloudy,0,2013-10-17 03:35:00
10:55 PM,55.4,54.5,97,30.06,5.0,Calm,Calm,-,N/A,,Scattered Clouds,0,2013-10-17 03:55:00
11:15 PM,54.5,53.6,97,30.06,1.8,Calm,Calm,-,N/A,,Scattered Clouds,0,2013-10-17 04:15:00
11:35 PM,54.5,53.6,97,30.06,3.0,Calm,Calm,-,N/A,,Scattered Clouds,0,2013-10-17 04:35:00
11:55 PM,55.2,54.5,97,30.05,7.0,Calm,Calm,-,N/A,,Mostly Cloudy,0,2013-10-17 04:55:00